Location: Rottenacker
(48.2350°N, 9.6886°E)
Time: 07:51:00
(UTC+01:00)

N. Korean satellite - Visible Passes

Search period start: 07 December 2019 00:00
Search period end: 17 December 2019 00:00
Orbit: 456 x 506 km, 97.2° (Epoch: 06 December)

Date Brightness Start Highest point End Pass type
(mag) Time Alt. Az. Time Alt. Az. Time Alt. Az.
07 Dec 8.5 05:44:36 10° NNE 05:47:49 30° E 05:50:56 10° SSE visible
07 Dec 7.8 07:18:16 10° NNW 07:21:03 21° WNW 07:23:46 10° WSW visible
07 Dec 8.6 17:56:28 10° SSW 17:59:49 32° W 18:03:11 10° NNW visible
08 Dec 9.6 05:19:54 10° NE 05:22:11 16° E 05:24:25 10° SE visible
08 Dec 7.0 06:52:24 10° N 06:55:47 39° WNW 06:59:04 10° SW visible
08 Dec 7.2 17:30:38 10° S 17:34:19 63° W 17:38:00 10° NNW visible
09 Dec 6.4 06:26:49 10° N 06:30:24 81° WNW 06:33:54 10° SSW visible
09 Dec 6.6 17:05:13 10° SSE 17:08:54 64° ENE 17:12:34 10° N visible
09 Dec 10.2 18:41:28 10° WSW 18:42:41 11° W 18:43:54 10° WNW visible
10 Dec 7.5 06:01:28 10° NNE 06:04:57 48° E 06:08:20 10° S visible
10 Dec 9.4 18:14:09 10° SW 18:17:01 21° W 18:19:53 10° NW visible
11 Dec 8.9 05:36:26 10° NE 05:39:23 24° E 05:42:17 10° SSE visible
11 Dec 7.5 07:09:46 10° N 07:12:44 25° WNW 07:15:39 10° SW visible
11 Dec 8.2 17:47:56 10° SSW 17:51:26 39° W 17:54:56 10° NNW visible
12 Dec 9.9 05:12:03 10° ENE 05:13:43 13° E 05:15:22 10° ESE visible
12 Dec 6.7 06:43:59 10° N 06:47:25 48° WNW 06:50:47 10° SSW visible
12 Dec 6.8 17:22:15 10° S 17:25:57 80° WSW 17:29:39 10° NNW visible
13 Dec 6.5 06:18:28 10° NNE 06:22:01 80° ESE 06:25:29 10° S visible
13 Dec 6.8 16:56:58 10° SSE 17:00:33 51° ENE 17:04:07 10° N visible
13 Dec 9.9 18:32:17 10° WSW 18:34:14 14° W 18:36:10 10° WNW visible
14 Dec 8.0 05:53:12 10° NNE 05:56:31 38° E 05:59:45 10° SSE visible
14 Dec 8.0 07:27:18 10° NNW 07:29:38 17° WNW 07:31:57 10° WSW visible
14 Dec 9.1 18:05:29 10° SSW 18:08:35 25° W 18:11:41 10° NW visible
15 Dec 9.3 05:28:17 10° NE 05:30:55 20° E 05:33:30 10° SE visible
15 Dec 7.3 07:01:16 10° N 07:04:23 30° WNW 07:07:27 10° SW visible
15 Dec 7.7 17:39:28 10° S 17:43:02 48° W 17:46:36 10° NNW visible
16 Dec 10.1 05:04:47 10° E 05:05:13 10° E 05:05:38 10° E visible
16 Dec 6.4 06:35:33 10° N 06:39:02 61° WNW 06:42:26 10° SSW visible
16 Dec 6.6 17:13:53 10° SSE 17:17:34 82° ENE 17:21:14 10° N visible
